Home > Weather > Mesa > Past weeks

Flag for USA Past Weather in Mesa, Arizona, USA — Yesterday and Last 2 Weeks

Now
108 °F

Scattered clouds.


Feels Like: 108 °F
Forecast: 88 / 103 °F
Wind: 7 mph from Northwest

Location: Williams Gateway Airport

Current Time: Jul 29, 2016 at 7:08:55 PM

Latest Report: Jul 29, 2016 at 5:47 PM


Visibility: 45 mi

Pressure: 29.68 "Hg

Humidity: 19%

Dew Point: 57 °F

Location of MesaLocation

Past Weather in Mesa — Graph

°F

Mesa Temperature Yesterday

Maximum temperature yesterday: 108 °F (at 3:47 PM)
Minimum temperature yesterday: 84 °F (at 5:53 AM)
Average temperature yesterday: 94 °F

High & Low Weather Summary for the Past Weeks

 TemperatureHumidityPressure
High109 °F (Jul 22, 4:55 PM)74% (Jul 19, 5:49 AM)30.04 "Hg (Jul 19, 5:49 AM)
Low79 °F (Jul 19, 2:55 AM)11% (Jul 14, 5:47 PM)29.68 "Hg (Jul 29, 5:47 PM)
Average93 °F33%29.88 "Hg
* Reported Jul 14 5:47 PM — Jul 29 5:47 PM, Mesa, Weather by CustomWeather, © 2016

Note: Actual official high and low records may vary slightly from our data, if they occured in-between our weather recording intervals... More about our weather records

Advertising

Mesa Weather History for the Previous 24 Hours

Scroll right to see more
 ConditionsComfort  
Time TempWeatherWind HumidityBarometerVisibility
5:47 PM
Fri, Jul 29
108 °FScattered clouds.7 mph19%29.68 "Hg45 mi
3:47 PM108 °FPassing clouds.14 mph20%29.71 "Hg45 mi
2:47 PM106 °FPassing clouds.7 mph23%29.75 "Hg45 mi
1:50 PM104 °FPassing clouds.7 mph26%29.78 "Hg45 mi
12:47 PM100 °FPassing clouds.6 mph29%29.82 "Hg45 mi
11:51 AM99 °FPassing clouds.5 mph31%29.85 "Hg30 mi
10:47 AM97 °FPassing clouds.5 mph32%29.87 "Hg30 mi
9:47 AM95 °FPassing clouds.5 mph34%29.87 "Hg30 mi
8:47 AM93 °FPassing clouds.5 mph39%29.88 "Hg45 mi
7:47 AM90 °FPassing clouds.9 mph43%29.87 "Hg45 mi
6:47 AM88 °FPassing clouds.9 mph46%29.87 "Hg45 mi
5:47 AM88 °FPassing clouds.9 mph35%29.85 "Hg45 mi
4:47 AM88 °FPassing clouds.5 mph35%29.83 "Hg20 mi
4:35 AM88 °FClear.No wind33%29.82 "Hg10 mi
4:15 AM88 °FClear.6 mph38%29.80 "Hg10 mi
3:55 AM88 °FClear.5 mph38%29.79 "Hg10 mi
3:35 AM88 °FClear.No wind35%29.79 "Hg10 mi
3:15 AM88 °FClear.5 mph35%29.78 "Hg10 mi
2:55 AM90 °FClear.6 mph31%29.78 "Hg10 mi
2:35 AM90 °FClear.3 mph31%29.78 "Hg10 mi
2:15 AM90 °FClear.No wind31%29.78 "Hg10 mi
1:55 AM91 °FClear.No wind30%29.78 "Hg10 mi
1:35 AM91 °FClear.No wind30%29.78 "Hg10 mi
1:15 AM91 °FClear.No wind30%29.78 "Hg10 mi
12:55 AM91 °FClear.5 mph30%29.78 "Hg10 mi
12:35 AM91 °FClear.6 mph30%29.78 "Hg10 mi
12:15 AM91 °FClear.6 mph28%29.78 "Hg10 mi
11:50 PM
Thu, Jul 28
91 °FPassing clouds.No wind30%29.79 "Hg20 mi
10:50 PM97 °FPassing clouds.No wind25%29.78 "Hg20 mi
9:47 PM100 °FPassing clouds.7 mph21%29.78 "Hg20 mi
8:47 PM102 °FPassing clouds.6 mph21%29.74 "Hg20 mi
7:47 PM106 °FPassing clouds.7 mph17%29.74 "Hg20 mi
Weather by CustomWeather, © 2016

See weather overviewHow to use our weather pages